Location: Ravensburg
(47.7866°N, 9.6124°E)
Time: 21:16:42
(UTC+02:00)

ITAMSAT 1 - Pass Details

Date: 21 March 2026
Orbit: 782 x 793 km, 98.7° (Epoch: 14 April)

Event Time Altitude Azimuth Distance (km) Brightness Sun altitude
Exits shadow 22:20:35 36° 295° (WNW) 1,242 9.0 -34.3°
Drops below altitude 10° 22:24:17 10° 332° (NNW) 2,358 10.9 -34.7°
Sets 22:26:46 0° 340° (NNW) 3,294 11.8 -34.9°
